Terminal Aerodrome Forecast
Issued by NWS Spokane, WA

Home | Current Version | Previous Version | Text Only | Print | Product List | Glossary On
Versions: 1 2 3 4 5 6 7 8 9 10 11 12 13 14 15 16 17
000
FTUS46 KOTX 051736
TAFGEG
TAF
KGEG 051736Z 0518/0618 20005KT P6SM BKN020
     FM052100 23007KT P6SM VCSH SCT070 BKN110
     FM052300 33007KT P6SM VCTS SCT060CB BKN120
     FM060300 35006KT P6SM BKN100
     FM061000 03011KT P6SM SCT100=

USA.gov is the U.S. government's official web portal to all federal, state and local government web resources and services.